AirNav   Phillips 66 Aviation Fuel
 
 510 users online  

5I2 Flora Municipal Airport
Flora, Indiana, USA

GOING TO FLORA?


FAA INFORMATION EFFECTIVE 03 JANUARY 2019

Location

FAA Identifier: 5I2
Lat/Long: 40-32-23.1300N / 086-32-53.9990W
40-32.385500N / 086-32.899983W
40.5397583 / -86.5483331
(estimated)
Elevation: 710 ft. / 216 m (estimated)
Variation: 02W (1985)
From city: 2 miles SW of FLORA, IN
Time zone: UTC -5 (UTC -4 during Daylight Saving Time)
Zip code: 46929

Airport Operations

Airport use: Open to the public
Activation date: 02/1967
Control tower: no
ARTCC: CHICAGO CENTER
FSS: TERRE HAUTE FLIGHT SERVICE STATION
NOTAMs facility: HUF (NOTAM-D service available)
Attendance: UNATNDD
Wind indicator: lighted
Segmented circle: no
Lights: SS-SR

Airport Communications

CTAF: 122.9
WX AWOS-3P at GGP (13 nm NE): 118.5 (574-737-7310)
WX AWOS-3P at MCX (14 nm NW): 124.05 (574-583-0531)
WX AWOS-3 at FKR (16 nm S): 124.325 (765-654-0328)
WX ASOS at LAF (19 nm SW): PHONE 765-743-9687

Nearby radio navigation aids

VOR radial/distance  VOR name  Freq  Var
GUSr253/19.1GRISSOM VORTAC108.4502W
OKKr277/22.4KOKOMO VORTAC113.5005W
BVTr091/23.8BOILER VORTAC115.1001E
MZZr277/39.7MARION VOR/DME108.6003W

 
NDB name  Hdg/Dist  Freq  Var  ID
CRAWFORDSVILLE031/37.538804WCFJ -.-. ..-. .---

Airport Services

Parking: tiedowns
Airframe service: NONE
Powerplant service: NONE
Bottled oxygen: NONE
Bulk oxygen: NONE

Runway Information

Runway 9/27

Dimensions: 2143 x 93 ft. / 653 x 28 m
Surface: turf, in good condition
Runway edge lights: low intensity
RUNWAY 9  RUNWAY 27
Latitude: 40-32.418833N40-32.418833N
Longitude: 086-33.151833W086-32.681167W
Elevation: 710.0 ft.710.0 ft.
Traffic pattern: leftleft
Runway end identifier lights: nono
Obstructions: 15 ft. road, 285 ft. from runway, 20:1 slope to clear10 ft. crops, 200 ft. from runway, 20:1 slope to clear

Airport Ownership and Management from official FAA records

Ownership: Publicly-owned
Owner: TOWN OF FLORA
4 EAST MAIN ST
FLORA, IN 46929
Phone 574-967-4844
Manager: JORETTA TINSMAN
4 EAST MAIN ST
FLORA, IN 46929
Phone (574) 967-4844

Airport Operational Statistics

Aircraft based on the field: 7
Single engine airplanes: 4
Ultralights: 3
    
Aircraft operations: avg 38/week *
75% local general aviation
25% transient general aviation
* for 12-month period ending 31 December 2016

Instrument Procedures

There are no published instrument procedures at 5I2.

Some nearby airports with instrument procedures:

KGGP - Logansport/Cass County Airport (13 nm NE)
KMCX - White County Airport (14 nm NW)
KFKR - Frankfort Municipal Airport (16 nm S)
KGUS - Grissom Air Reserve Base (19 nm E)
KLAF - Purdue University Airport (19 nm SW)
 
Loc | Ops | Rwys | IFR | FBO | Links
Com | Nav | Svcs | Stats | Notes
Area around 5I2 (Flora Municipal Airport)
 
Road maps at: MapQuest Bing Google
 
Aerial photo
WARNING: Photo may not be current or correct
Aerial photo of 5I2 (Flora Municipal Airport)
Do you have a better or more recent aerial photo of Flora Municipal Airport that you would like to share? If so, please send us your photo.

 
Sectional chart

 
Airport distance calculator
Flying to Flora Municipal Airport? Find the distance to fly.

From to 5I2

Sunrise and sunset
Times for 18-Jan-2019
 Local
(UTC-5)
 Zulu
(UTC)
Morning civil twilight07:3812:38
Sunrise08:0713:07
Sunset17:4622:46
Evening civil twilight18:1623:16

Current date and time
Zulu (UTC)  18-Jan-2019 12:07:48
Local (UTC-5)  18-Jan-2019 07:07:48
 
METAR
KGGP 
13nm NE 
181155Z AUTO 30003KT 5SM BR OVC009 00/M01 A3012 RMK AO2
KMCX 
14nm NW 
181155Z AUTO 00000KT 4SM BR OVC032 M01/M02 A3012 RMK AO2 70007 T10121020 10000 21012
KFKR 
16nm S 
181155Z AUTO 32005KT 5SM BR BKN007 OVC034 00/M01 A3013 RMK AO2 70005 T00031015 10012 20003 TSNO
KGUS 
19nm E 
181156Z 30004KT 7SM BKN009 OVC031 00/00 A3010 RMK AO2A SLP205 60000 70014 T10051005 10001 21005 53007 FZRANO $
KLAF 
20nm W 
181154Z 27003KT 4SM BR FEW011 OVC032 M01/M02 A3012 RMK AO2 SLP207 70019 T10111017 10000 21011 53005
KOKK 
22nm E 
181156Z AUTO 30004KT 4SM BR OVC009 M01/M01 A3011 RMK AO2 SLP207 60000 70020 T10061011 10000 21006 53008 FZRANO
TAF
KGUS 
19nm E 
181112Z 1811/1917 30006KT 8000 BR BKN009 OVC015 620153 QNH3000INS BECMG 1812/1813 VRB06KT 9999 NSW BKN007 620073 QNH3003INS WND 09006KT AFT 1820 BECMG 1904/1905 08012KT 6000 -SN BKN010 620109 QNH2998INS BECMG 1911/1912 08012G18KT 3200 -SN BKN006 620069 QNH2998INS TEMPO 1914/1917 08025G35KT 540003 TX01/1818Z TNM03/1812Z
KLAF 
20nm W 
181120Z 1812/1912 VRB03KT 5SM BR SCT010 OVC030 FM181400 VRB03KT P6SM OVC010 FM190400 08008KT P6SM OVC008 FM190800 07011G19KT 3SM -SN OVC007 FM191100 07012G21KT 1 1/2SM -SN BR OVC005 AMD LTD TO CLD VIS AND WIND TIL 181400
NOTAMs
Click for the latest NOTAMs
NOTAMs are issued by the DoD/FAA and will open in a separate window not controlled by AirNav.

 

 
 

Would you like to see your business listed on this page?

 If your business provides an interesting product or service to pilots, flight crews, aircraft, or users of the Flora Municipal Airport, you should consider listing it here.  To start the listing process, click on the button below
 
Add a business
 

Other Pages about Flora Municipal Airport

Update a link
 
Copyright © AirNav, LLC. All rights reserved. Privacy Policy  Contact